KJ4YRE Weather Reports


time (UTC)temp
F
wind
direction
speed
knots
gust
knots
rain 1hr
in
rain 24hr
in
rain mn
in
humidity
%
barometer
mb
20260510231006 78 129 1.7 6.1 0.00 0.00 0.00 48 1013.4
20260510230715 79 181 1.7 7.0 0.00 0.00 0.00 46 1013.3
20260510230007 80 192 1.7 7.0 0.00 0.00 0.00 45 1013.3
20260510225506 81 192 1.7 7.8 0.00 0.00 0.00 43 1013.1
20260510225005 83 178 1.7 7.0 0.00 0.00 0.00 40 1013.1
20260510224506 83 172 3.5 10.4 0.00 0.00 0.00 38 1013.1
20260510224005 84 157 2.6 8.7 0.00 0.00 0.00 37 1013.1
20260510223717 85 187 3.5 10.4 0.00 0.00 0.00 34 1013.0
20260510223009 86 185 1.7 4.3 0.00 0.00 0.00 31 1013.0
20260510222505 86 163 0.9 1.7 0.00 0.00 0.00 33 1013.0
20260510222005 86 261 1.7 6.1 0.00 0.00 0.00 32 1013.0
20260510221505 87 192 1.7 7.0 0.00 0.00 0.00 31 1013.1
20260510221007 86 175 1.7 6.1 0.00 0.00 0.00 29 1013.1
20260510220505 87 176 2.6 6.1 0.00 0.00 0.00 31 1013.2
20260510220215 88 194 2.6 6.1 0.00 0.00 0.00 29 1013.1
20260510215506 88 175 1.7 5.2 0.00 0.00 0.00 29 1013.1
20260510215005 88 228 0.9 6.1 0.00 0.00 0.00 30 1013.0
20260510214505 88 281 0.9 4.3 0.00 0.00 0.00 28 1013.1
20260510214006 88 211 0.9 4.3 0.00 0.00 0.00 30 1013.2
20260510213716 87 133 2.6 5.2 0.00 0.00 0.00 29 1013.2
20260510213007 88 149 1.7 7.0 0.00 0.00 0.00 30 1013.2
20260510212505 88 252 1.7 7.0 0.00 0.00 0.00 28 1013.1
20260510212005 88 173 2.6 7.0 0.00 0.00 0.00 28 1013.1
20260510211505 87 227 2.6 7.0 0.00 0.00 0.00 30 1013.1
20260510211215 88 259 2.6 6.1 0.00 0.00 0.00 30 1013.1
20260510210716 89 266 0.9 7.8 0.00 0.00 0.00 29 1013.0
20260510210007 88 166 1.7 5.2 0.00 0.00 0.00 29 1013.0
20260510205505 87 306 0.9 7.0 0.00 0.00 0.00 30 1012.9
20260510205006 88 240 3.5 7.8 0.00 0.00 0.00 28 1012.9
20260510204714 90 266 1.7 7.8 0.00 0.00 0.00 29 1012.9
20260510204217 88 276 1.7 7.0 0.00 0.00 0.00 28 1012.9
20260510203507 89 300 0.9 6.1 0.00 0.00 0.00 26 1013.0
20260510203006 89 209 1.7 5.2 0.00 0.00 0.00 27 1013.0
20260510202506 89 208 1.7 5.2 0.00 0.00 0.00 27 1013.1
20260510202217 88 237 1.7 5.2 0.00 0.00 0.00 29 1013.1
20260510201506 89 312 2.6 5.2 0.00 0.00 0.00 27 1013.1
20260510201217 87 293 2.6 5.2 0.00 0.00 0.00 28 1013.2
20260510200505 88 250 0.9 2.6 0.00 0.00 0.00 29 1013.2
20260510200007 87 74 2.6 8.7 0.00 0.00 0.00 27 1013.3
20260510195504 88 249 2.6 8.7 0.00 0.00 0.00 26 1013.3
20260510195217 89 73 0.9 2.6 0.00 0.00 0.00 25 1013.4
20260510194504 88 95 0.9 2.6 0.00 0.00 0.00 25 1013.3
20260510194006 88 60 1.7 5.2 0.00 0.00 0.00 26 1013.5
20260510193506 87 75 0.9 4.3 0.00 0.00 0.00 27 1013.4
20260510193006 89 207 2.6 4.3 0.00 0.00 0.00 27 1013.6
20260510192504 87 232 3.5 6.1 0.00 0.00 0.00 27 1013.8
20260510192006 87 296 2.6 8.7 0.00 0.00 0.00 25 1013.8
20260510191504 87 70 2.6 6.1 0.00 0.00 0.00 26 1013.9
20260510191215 86 20 0.9 6.1 0.00 0.00 0.00 26 1013.9
20260510190505 88 228 4.3 10.4 0.00 0.00 0.00 27 1013.8
20260510190005 86 271 2.6 8.7 0.00 0.00 0.00 28 1013.8
20260510185506 85 171 3.5 10.4 0.00 0.00 0.00 28 1013.9
20260510185216 86 299 3.5 7.0 0.00 0.00 0.00 31 1013.8
20260510184504 86 134 2.6 7.8 0.00 0.00 0.00 31 1013.9
20260510184005 88 229 4.3 7.8 0.00 0.00 0.00 33 1014.0
20260510183505 85 253 1.7 7.8 0.00 0.00 0.00 32 1014.0
20260510183006 86 107 3.5 8.7 0.00 0.00 0.00 32 1013.9
20260510182715 89 294 0.9 4.3 0.00 0.00 0.00 31 1014.0
20260510182216 86 215 1.7 4.3 0.00 0.00 0.00 31 1014.1
20260510181505 85 248 4.3 6.1 0.00 0.00 0.00 32 1014.1
20260510181006 87 145 0.9 4.3 0.00 0.00 0.00 32 1014.2
20260510180717 87 93 0.9 4.3 0.00 0.00 0.00 31 1014.1
20260510180006 86 77 0.9 4.3 0.00 0.00 0.00 32 1014.2
20260510175715 86 182 0.9 6.1 0.00 0.00 0.00 32 1014.2
20260510175005 86 221 1.7 4.3 0.00 0.00 0.00 34 1014.1
20260510174506 85 77 1.7 5.2 0.00 0.00 0.00 32 1014.1
20260510174216 85 77 1.7 7.8 0.00 0.00 0.00 32 1014.2
20260510173506 85 56 1.7 4.3 0.00 0.00 0.00 31 1014.2
20260510173005 86 55 0.9 2.6 0.00 0.00 0.00 31 1014.4
20260510172506 87 243 0.9 4.3 0.00 0.00 0.00 30 1014.5
20260510172216 85 240 3.5 7.0 0.00 0.00 0.00 33 1014.5
20260510171715 84 45 0.9 4.3 0.00 0.00 0.00 33 1014.5
20260510171007 84 103 1.7 4.3 0.00 0.00 0.00 34 1014.4
20260510170717 85 78 1.7 4.3 0.00 0.00 0.00 33 1014.5
20260510170006 83 77 1.7 2.6 0.00 0.00 0.00 32 1014.6
20260510165505 83 78 1.7 2.6 0.00 0.00 0.00 34 1014.6
20260510165006 83 46 0.9 5.2 0.00 0.00 0.00 37 1014.6
20260510164506 85 192 2.6 5.2 0.00 0.00 0.00 37 1014.7
20260510164217 84 74 1.7 2.6 0.00 0.00 0.00 35 1014.7
20260510163506 84 77 1.7 4.3 0.00 0.00 0.00 36 1014.7
20260510163217 85 84 1.7 2.6 0.00 0.00 0.00 37 1014.7
20260510162716 85 56 0.9 4.3 0.00 0.00 0.00 36 1014.7
20260510162006 85 148 2.6 7.0 0.00 0.00 0.00 37 1014.7
20260510161716 83 166 0.9 6.1 0.00 0.00 0.00 41 1014.8
20260510161005 83 225 1.7 5.2 0.00 0.00 0.00 39 1015.0
20260510160716 82 259 2.6 6.1 0.00 0.00 0.00 41 1015.0
20260510160215 84 103 3.5 5.2 0.00 0.00 0.00 40 1015.1
20260510155505 82 89 0.9 2.6 0.00 0.00 0.00 40 1015.0
20260510155005 81 241 1.7 5.2 0.00 0.00 0.00 41 1015.1
20260510154716 82 218 2.6 6.1 0.00 0.00 0.00 41 1015.1
20260510154006 81 198 1.7 4.3 0.00 0.00 0.00 44 1015.2
20260510153716 82 183 1.7 4.3 0.00 0.00 0.00 42 1015.3
20260510153215 80 167 2.6 6.1 0.00 0.00 0.00 43 1015.4
20260510152504 78 169 1.7 4.3 0.00 0.00 0.00 47 1015.5
20260510152007 80 274 0.9 4.3 0.00 0.00 0.00 47 1015.4
20260510151504 78 327 1.7 4.3 0.00 0.00 0.00 46 1015.3
20260510151006 79 270 1.7 5.2 0.00 0.00 0.00 47 1015.2
20260510150506 80 165 2.6 5.2 0.00 0.00 0.00 47 1015.2
20260510150005 79 148 1.7 2.6 0.00 0.00 0.00 48 1015.1
20260510145505 78 209 2.6 4.3 0.00 0.00 0.00 50 1015.2
20260510145006 78 93 0.9 4.3 0.00 0.00 0.00 46 1015.1
20260510144505 77 224 2.6 5.2 0.00 0.00 0.00 52 1015.1
20260510144217 77 62 0.9 1.7 0.00 0.00 0.00 49 1015.1
20260510143506 76 89 0.0 4.3 0.00 0.00 0.00 51 1015.1
20260510143006 77 61 0.9 2.6 0.00 0.00 0.00 54 1015.0
20260510142505 77 77 0.9 4.3 0.00 0.00 0.00 55 1015.1
20260510142005 76 77 0.9 2.6 0.00 0.00 0.00 57 1015.1
20260510141505 74 346 0.0 2.6 0.00 0.00 0.00 59 1015.1
20260510141007 74 347 1.7 4.3 0.00 0.00 0.00 60 1015.2
20260510140505 73 4 0.9 4.3 0.00 0.00 0.00 61 1015.1
20260510140007 74 77 0.9 2.6 0.00 0.00 0.00 61 1015.2
20260510135505 73 242 0.9 1.7 0.00 0.00 0.00 65 1015.3
20260510135004 72 7 0.9 2.6 0.00 0.00 0.00 66 1015.5
20260510134505 72 44 0.9 4.3 0.00 0.00 0.00 66 1015.5
20260510134006 72 223 0.9 2.6 0.00 0.00 0.00 69 1015.5
20260510133505 71 40 0.9 2.6 0.00 0.00 0.00 69 1015.5
20260510133216 70 114 0.9 2.6 0.00 0.00 0.00 70 1015.5
20260510132506 70 47 0.9 2.6 0.00 0.00 0.00 69 1015.4
20260510132005 71 357 1.7 2.6 0.00 0.00 0.00 70 1015.4
20260510131506 70 36 1.7 4.3 0.00 0.00 0.00 71 1015.4
20260510131006 71 213 0.9 1.7 0.00 0.00 0.00 73 1015.4
20260510130507 69 79 0.0 1.7 0.00 0.00 0.00 74 1015.5
20260510130008 69 27 0.9 4.3 0.00 0.00 0.00 73 1015.6
20260510125504 69 76 0.9 1.7 0.00 0.00 0.00 76 1015.7
20260510125006 69 77 0.0 1.7 0.00 0.00 0.00 78 1015.6
20260510124505 67 151 0.0 2.6 0.00 0.00 0.00 80 1015.4
20260510124008 67 59 0.9 1.7 0.00 0.00 0.00 85 1015.3
20260510123715 65 117 0.9 1.7 0.00 0.00 0.00 89 1015.2
20260510123006 64 262 0.0 1.7 0.00 0.00 0.00 91 1015.1
20260510122504 64 66 0.0 2.6 0.00 0.00 0.00 93 1015.0
20260510122006 63 296 2.6 4.3 0.00 0.00 0.00 95 1014.7
20260510121505 62 215 0.9 1.7 0.00 0.00 0.00 99 1014.2
20260510121005 61 225 0.9 1.7 0.00 0.00 0.00 100 1013.8
20260510120506 60 279 0.9 1.7 0.00 0.00 0.00 100 1013.7
20260510120008 59 199 0.0 0.9 0.00 0.00 0.00 100 1013.5
20260510115506 59 160 0.9 2.6 0.00 0.00 0.00 100 1013.5
20260510115216 57 196 0.9 1.7 0.00 0.00 0.00 100 1013.4
20260510114717 57 155 0.0 2.6 0.00 0.00 0.00 100 1013.5
20260510114218 56 222 1.7 6.1 0.00 0.00 0.00 100 1013.5
20260510113506 55 228 0.9 1.7 0.00 0.00 0.00 100 1013.4
20260510113007 55 222 0.0 0.0 0.00 0.00 0.00 100 1013.2
20260510112715 55 126 0.0 0.0 0.00 0.00 0.00 100 1013.1
20260510112006 54 177 0.0 0.9 0.00 0.00 0.00 100 1013.0
20260510111505 54 144 0.0 0.9 0.00 0.00 0.00 100 1013.0
20260510111005 54 33 0.0 0.0 0.00 0.00 0.00 100 1012.8
20260510110507 54 36 0.0 0.0 0.00 0.00 0.00 100 1012.7
20260510110215 54 29 0.0 0.0 0.00 0.00 0.00 100 1012.7
20260510105505 54 31 0.0 0.0 0.00 0.00 0.00 100 1012.6
20260510105006 54 115 0.0 0.9 0.00 0.00 0.00 100 1012.6
20260510104505 54 191 0.0 0.9 0.00 0.00 0.00 100 1012.7
20260510104006 54 192 0.9 0.9 0.00 0.00 0.00 100 1012.5
20260510103504 54 163 0.0 0.0 0.00 0.00 0.00 100 1012.4
20260510103215 54 184 0.0 0.0 0.00 0.00 0.00 100 1012.5
20260510102505 54 255 0.0 0.9 0.00 0.00 0.00 100 1012.4
20260510102215 54 230 0.0 0.9 0.00 0.00 0.00 100 1012.2
20260510101505 54 263 0.0 0.0 0.00 0.00 0.00 100 1012.1
20260510101006 54 186 0.0 0.0 0.00 0.00 0.00 100 1011.9
20260510100506 54 210 0.0 0.9 0.00 0.00 0.00 100 1011.9
20260510100007 54 204 0.0 0.0 0.00 0.00 0.00 100 1011.8
20260510095505 54 204 0.0 0.0 0.00 0.00 0.00 100 1011.7
20260510095007 55 310 0.0 0.0 0.00 0.00 0.00 100 1011.6
20260510094506 55 20 0.0 0.0 0.00 0.00 0.00 100 1011.6
20260510094006 55 41 0.0 0.9 0.00 0.00 0.00 100 1011.6
20260510093716 55 66 0.0 0.0 0.00 0.00 0.00 100 1011.6
20260510093215 55 77 0.0 0.9 0.00 0.00 0.00 100 1011.5
20260510092505 55 43 0.0 0.9 0.00 0.00 0.00 100 1011.6
20260510092215 56 16 0.0 0.9 0.00 0.00 0.00 100 1011.5
20260510091716 56 279 0.0 0.9 0.00 0.00 0.00 100 1011.5
20260510091006 56 171 0.9 0.9 0.00 0.00 0.00 100 1011.5
20260510090506 56 181 0.9 1.7 0.00 0.00 0.00 100 1011.4
20260510090005 56 195 0.9 0.9 0.00 0.00 0.00 100 1011.3
20260510085507 56 188 0.0 0.9 0.00 0.00 0.00 100 1011.2
20260510085005 56 272 0.9 0.9 0.00 0.00 0.00 100 1011.2
20260510084506 56 310 0.9 0.9 0.00 0.00 0.00 100 1011.1
20260510084006 57 91 0.9 1.7 0.00 0.00 0.00 100 1011.1
20260510083507 57 77 0.0 0.9 0.00 0.00 0.00 100 1011.1
20260510083006 57 332 0.0 0.9 0.00 0.00 0.00 100 1011.1
20260510082507 57 210 0.0 0.9 0.00 0.00 0.00 100 1011.1
20260510082216 57 187 0.0 0.9 0.00 0.00 0.00 100 1011.2
20260510081715 57 220 0.9 0.9 0.00 0.00 0.00 100 1011.2
20260510081006 57 260 0.0 0.9 0.00 0.00 0.00 100 1011.1
20260510080715 57 259 0.0 0.9 0.00 0.00 0.00 100 1011.1
20260510080005 57 83 0.0 0.9 0.00 0.00 0.00 100 1011.0
20260510075506 57 337 0.9 1.7 0.00 0.00 0.00 100 1011.0
20260510075005 58 77 0.0 0.9 0.00 0.00 0.00 100 1011.0
20260510074505 58 307 0.9 1.7 0.00 0.00 0.00 100 1010.9
20260510074005 58 330 0.9 1.7 0.00 0.00 0.00 100 1010.9
20260510073507 58 254 0.9 0.9 0.00 0.00 0.00 100 1010.9
20260510073216 58 112 0.0 0.9 0.00 0.00 0.00 100 1010.8
20260510072505 58 134 0.0 0.9 0.00 0.00 0.00 100 1010.9
20260510072005 58 261 0.9 1.7 0.00 0.00 0.00 100 1010.8
20260510071506 58 159 0.9 1.7 0.00 0.00 0.00 100 1010.9
20260510071216 58 153 0.9 0.9 0.00 0.00 0.00 100 1011.0
20260510070506 58 169 0.9 0.9 0.00 0.00 0.00 100 1010.9
20260510070005 58 207 0.0 0.0 0.00 0.00 0.00 100 1011.0
20260510065506 58 77 0.0 1.7 0.00 0.00 0.00 100 1011.0
20260510065007 59 74 0.9 0.9 0.00 0.00 0.00 100 1011.1
20260510064717 59 327 0.0 1.7 0.00 0.00 0.00 100 1011.1
20260510064006 59 256 0.0 1.7 0.00 0.00 0.00 100 1011.2
20260510063508 59 209 0.9 2.6 0.00 0.00 0.00 99 1011.3
20260510063216 59 181 0.9 1.7 0.00 0.00 0.00 99 1011.3
20260510062505 59 197 0.9 1.7 0.00 0.00 0.00 98 1011.4
20260510062005 59 151 0.9 4.3 0.00 0.00 0.00 98 1011.5
20260510061505 59 219 0.9 1.7 0.00 0.00 0.00 98 1011.6
20260510061005 59 231 0.9 1.7 0.00 0.00 0.00 98 1011.6
20260510060505 60 177 0.9 2.6 0.00 0.00 0.00 98 1011.5
20260510060218 60 239 0.0 0.9 0.00 0.00 0.00 97 1011.7
20260510055505 60 186 0.0 1.7 0.00 0.00 0.00 97 1011.7
20260510055005 60 223 0.9 1.7 0.00 0.00 0.00 96 1011.8
20260510054505 60 189 0.9 0.9 0.00 0.00 0.00 96 1011.9
20260510054215 60 226 0.9 1.7 0.00 0.00 0.00 96 1011.9
20260510053505 60 202 1.7 2.6 0.00 0.00 0.00 96 1012.0
20260510053007 61 248 0.9 4.3 0.00 0.00 0.00 95 1012.0
20260510052505 61 234 1.7 2.6 0.00 0.00 0.00 95 1012.1
20260510052005 61 257 2.6 4.3 0.00 0.00 0.00 94 1012.0
20260510051716 61 231 0.9 4.3 0.00 0.00 0.00 93 1012.2
20260510051005 61 196 0.9 4.3 0.00 0.00 0.00 93 1012.2
20260510050716 61 226 1.7 4.3 0.00 0.00 0.00 94 1012.1
20260510050005 61 206 0.9 2.6 0.00 0.00 0.00 93 1012.2
20260510045505 61 134 0.9 2.6 0.00 0.00 0.00 92 1012.2
20260510045005 61 204 1.7 4.3 0.00 0.00 0.00 92 1012.3
20260510044504 61 101 0.9 2.6 0.00 0.00 0.00 92 1012.3
20260510044006 62 214 0.9 2.6 0.00 0.00 0.00 92 1012.2
20260510043504 62 299 0.9 1.7 0.00 0.00 0.00 91 1012.2
20260510043005 62 339 0.9 2.6 0.00 0.00 0.00 90 1012.2
20260510042506 62 223 1.7 5.2 0.00 0.00 0.00 90 1012.2
20260510042005 62 255 0.9 4.3 0.00 0.00 0.00 89 1012.3
20260510041716 63 208 0.9 2.6 0.00 0.00 0.00 89 1012.2
20260510041006 63 223 1.7 2.6 0.00 0.00 0.00 89 1012.3
20260510040505 63 216 2.6 4.3 0.00 0.00 0.00 88 1012.3
20260510040013 63 154 0.9 5.2 0.00 0.00 0.00 87 1012.3
20260510035716 63 237 1.7 4.3 0.00 0.00 0.00 87 1012.2
20260510035005 63 274 1.7 5.2 0.00 0.00 0.00 87 1012.2
20260510034505 63 225 2.6 5.2 0.00 0.00 0.00 87 1012.2
20260510034006 63 238 2.6 4.3 0.00 0.00 0.00 86 1012.2
20260510033504 64 263 1.7 4.3 0.00 0.00 0.00 85 1012.1
20260510033005 64 278 1.7 5.2 0.00 0.00 0.00 85 1012.2
20260510032505 64 196 1.7 4.3 0.00 0.00 0.00 85 1012.1
20260510032005 64 234 1.7 4.3 0.00 0.00 0.00 84 1012.1
20260510031504 64 216 1.7 4.3 0.00 0.00 0.00 84 1012.1
20260510031006 64 233 1.7 4.3 0.00 0.00 0.00 83 1012.2
20260510030505 64 209 1.7 5.2 0.00 0.00 0.00 82 1012.1
20260510030216 64 226 0.9 2.6 0.00 0.00 0.00 82 1012.0
20260510025505 64 257 1.7 5.2 0.00 0.00 0.00 83 1011.9
20260510025216 64 209 1.7 4.3 0.00 0.00 0.00 82 1012.0
20260510024505 64 271 1.7 5.2 0.00 0.00 0.00 82 1012.0
20260510024005 65 231 1.7 7.0 0.00 0.00 0.00 82 1011.9
20260510023505 65 236 1.7 2.6 0.00 0.00 0.00 82 1011.9
20260510023006 64 235 2.6 4.3 0.00 0.00 0.00 82 1011.8
20260510022505 65 238 1.7 5.2 0.00 0.00 0.00 82 1011.8
20260510022005 65 223 1.7 2.6 0.00 0.00 0.00 81 1011.8
20260510021505 65 191 1.7 4.3 0.00 0.00 0.00 79 1011.7
20260510021005 65 213 0.9 4.3 0.00 0.00 0.00 79 1011.7
20260510020715 65 241 1.7 4.3 0.00 0.00 0.00 79 1011.6
20260510020216 65 220 1.7 4.3 0.00 0.00 0.00 79 1011.5
20260510015504 66 206 0.9 4.3 0.00 0.00 0.00 78 1011.5
20260510015004 65 187 0.9 2.6 0.00 0.00 0.00 79 1011.4
20260510014506 65 207 0.9 2.6 0.00 0.00 0.00 79 1011.4
20260510014005 66 232 1.7 4.3 0.00 0.00 0.00 79 1011.4
20260510013506 65 252 1.7 4.3 0.00 0.00 0.00 79 1011.5
20260510013006 65 236 1.7 2.6 0.00 0.00 0.00 79 1011.4
20260510012505 66 221 1.7 2.6 0.00 0.00 0.00 79 1011.4
20260510012006 66 151 0.9 2.6 0.00 0.00 0.00 77 1011.3
20260510011717 66 204 0.9 1.7 0.00 0.00 0.00 77 1011.2
20260510011216 66 129 0.9 2.6 0.00 0.00 0.00 77 1011.1
20260510010506 66 212 1.7 2.6 0.00 0.00 0.00 76 1011.3
20260510010216 66 235 0.9 1.7 0.00 0.00 0.00 76 1011.2
20260510005505 66 274 1.7 2.6 0.00 0.00 0.00 77 1011.1
20260510005006 67 251 0.9 1.7 0.00 0.00 0.00 75 1011.0
20260510004715 67 231 0.9 2.6 0.00 0.00 0.00 76 1011.0
20260510004006 67 185 0.9 1.7 0.00 0.00 0.00 75 1010.9
20260510003717 67 124 0.0 0.9 0.00 0.00 0.00 74 1010.8
20260510003008 67 138 0.0 0.9 0.00 0.00 0.00 75 1010.8
20260510002505 68 191 0.0 1.7 0.00 0.00 0.00 74 1010.6
20260510002005 68 178 0.0 0.9 0.00 0.00 0.00 71 1010.5
20260510001506 68 179 0.0 1.7 0.00 0.00 0.00 70 1010.4
20260510001216 69 248 0.9 2.6 0.00 0.00 0.00 70 1010.3
20260510000504 69 198 0.0 0.9 0.00 0.00 0.00 69 1010.2
20260510000215 70 212 0.9 1.7 0.00 0.00 0.00 67 1010.1
20260509235715 70 217 0.9 1.7 0.00 0.00 0.00 67 1009.9
20260509235005 71 208 0.0 1.7 0.00 0.00 0.00 66 1009.9
20260509234505 71 126 0.0 0.9 0.00 0.00 0.00 66 1009.9
20260509234005 71 223 0.9 2.6 0.00 0.00 0.00 63 1010.0
20260509233716 72 243 0.9 1.7 0.00 0.00 0.00 64 1010.0
20260509233215 72 165 0.9 1.7 0.00 0.00 0.00 62 1010.0
20260509232505 73 154 0.9 0.9 0.00 0.00 0.00 61 1009.8
20260509232006 73 207 0.0 0.9 0.00 0.00 0.00 61 1009.8
20260509231505 73 240 0.0 1.7 0.00 0.00 0.00 60 1009.8